Regional Weather Roundup
Issued by NWS

Home | Current Version | Previous Version | Graphics & Text | Print | Product List | Glossary Off
Versions: 1 2 3 4 5 6 7 8 9 10 11 12 13 14 15 16 17 18 19 20 21 22 23 24 25 26 27 28 29 30 31 32 33 34 35 36 37 38 39 40 41 42 43 44 45 46 47 48 49 50

000
ASUS43 KTOP 291359
RWRKS

WEATHER ROUNDUP FOR KANSAS
NATIONAL WEATHER SERVICE GOODLAND KS
900 AM CDT SUN MAR 29 2015

NOTE:  "FAIR" INDICATES FEW OR NO CLOUDS BELOW 12,000 FEET WITH NO
SIGNIFICANT WEATHER AND/OR OBSTRUCTIONS TO VISIBILITY.

KSZ001>006-013>018-027>032-041>047-291500-
NORTHWEST KANSAS

CITY           SKY/WX    TMP DP  RH WIND       PRES   REMARKS
GOODLAND       SUNNY     50  23  34 N28G37    30.16R
HAYS           MOSUNNY   57  36  44 N16       30.04R
HILL CITY      MOSUNNY   56  30  37 NW21      30.06R
RUSSELL        PTSUNNY   59  34  39 N18       30.00R
$$

KSZ061>065-074>080-084>089-291500-
SOUTHWEST KANSAS

CITY           SKY/WX    TMP DP  RH WIND       PRES   REMARKS
DODGE CITY     SUNNY     57  36  45 N30G36    30.03R
ELKHART          N/A     56  32  40 N18         N/A
GARDEN CITY    MOSUNNY   53  38  56 N18       30.08R
GREAT BEND     MOSUNNY   57  39  51 N24       30.00R
LIBERAL        SUNNY     57  36  44 N30G36    30.07R
$$

KSZ066>073-081>083-090>101-291500-
SOUTHEAST KANSAS

CITY           SKY/WX    TMP DP  RH WIND       PRES   REMARKS
CHANUTE        MOSUNNY   45  37  73 VRB3      30.04R
COFFEYVILLE    SUNNY     47  37  68 S20G25    29.95S
HUTCHINSON     MOSUNNY   53  44  71 S6        29.96R
MEDICINE LODGE   N/A     50  45  83 CALM      29.95F
NEWTON         MOSUNNY   52  41  66 S14       29.96F
PARSONS        MOSUNNY   47  38  71 NW10      30.05R
WICHITA INTL   PTSUNNY   50  43  77 S10       29.95F
WICHITA JABRA  PTSUNNY   50  43  77 S8        29.97F
WINFIELD       PTSUNNY   49  43  80 N13       30.04R
$$

KSZ007>012-019>026-033>040-048>060-102>105-291500-
NORTHEAST KANSAS

CITY           SKY/WX    TMP DP  RH WIND       PRES   REMARKS
CONCORDIA      CLOUDY    48  42  80 W6        29.97R
EMPORIA        CLOUDY    47  41  80 SE7       29.98F
LAWRENCE       CLOUDY    44  36  73 S12       30.01R
MANHATTAN      CLOUDY    50  44  80 SW8       29.96R
OLATHE IND     CLOUDY    41  35  79 SW5       30.05R
OLATHE EXE     CLOUDY    42  36  79 SW10      30.05R
SALINA         MOSUNNY   56  45  66 SW6       29.96R
TOPEKA BILLARD PTSUNNY   45  39  79 S10       29.97F
TOPEKA FORBES  PTSUNNY   46  39  76 SE12      29.98F
$$


USA.gov is the U.S. government's official web portal to all federal, state and local government web resources and services.